Location: ???????
(52.3000°N, 54.4667°E)
Time: 03:57:15
(UTC+00:00)

STARLINK-1070 - Pass Details

Date: 24 January 2020
Orbit: 346 x 353 km, 53.0° (Epoch: 26 February)

Event Time Altitude Azimuth Distance (km) Brightness Sun altitude
Rises 13:56:34 0° 260° (W) 2,172 8.8 -9.6°
Reaches altitude 10° 13:58:35 10° 261° (W) 1,327 7.1 -9.9°
Maximum altitude 14:01:33 85° 347° (NNW) 360 2.7 -10.3°
Enters shadow 14:03:39 18° 79° (E) 973 4.2 -10.6°
